This is the latest recevied weather packets stored in our database for station/object DK6GC-10. If no packets are shown the sender has not sent any weather packets the latest 10 day(s).
| Time | Temp. | Humidity | Pressure | Rain* | Wind** | Luminosity | Snow |
|---|---|---|---|---|---|---|---|
| 1777317501 | 15° C | 36% | 1018.7 hPa | - | - | - | - |
| 1777316600 | 16.11° C | 34% | 1018.5 hPa | - | - | - | - |
| 1777315700 | 15.56° C | 38% | 1018.4 hPa | - | - | - | - |
| 1777314800 | 16.67° C | 37% | 1018.4 hPa | - | - | - | - |
| 1777313900 | 16.67° C | 36% | 1018.4 hPa | - | - | - | - |
| 1777313000 | 17.22° C | 35% | 1018.4 hPa | - | - | - | - |
| 1777312100 | 17.22° C | 35% | 1018.5 hPa | - | - | - | - |
| 1777311200 | 17.78° C | 37% | 1018.5 hPa | - | - | - | - |
| 1777310299 | 18.33° C | 38% | 1018.5 hPa | - | - | - | - |
| 1777309399 | 18.89° C | 34% | 1018.6 hPa | - | - | - | - |
| 1777308499 | 19.44° C | 36% | 1018.7 hPa | - | - | - | - |
| 1777307599 | 19.44° C | 34% | 1018.8 hPa | - | - | - | - |
| 1777306699 | 20° C | 35% | 1018.8 hPa | - | - | - | - |
| 1777305799 | 20.56° C | 32% | 1018.9 hPa | - | - | - | - |
| 1777304898 | 20.56° C | 31% | 1019 hPa | - | - | - | - |
| 1777303818 | 20.56° C | 32% | 1019.2 hPa | - | - | - | - |
| 1777302917 | 21.11° C | 32% | 1019.3 hPa | - | - | - | - |
| 1777302017 | 22.22° C | 30% | 1019.4 hPa | - | - | - | - |
| 1777301117 | 22.22° C | 32% | 1019.6 hPa | - | - | - | - |
| 1777300217 | 21.67° C | 33% | 1019.6 hPa | - | - | - | - |
| 1777299317 | 22.22° C | 32% | 1019.8 hPa | - | - | - | - |
| 1777298417 | 21.67° C | 32% | 1019.9 hPa | - | - | - | - |
| 1777297517 | 21.67° C | 33% | 1020.1 hPa | - | - | - | - |
| 1777296616 | 21.67° C | 35% | 1020.2 hPa | - | - | - | - |
| 1777295715 | 22.22° C | 34% | 1020.4 hPa | - | - | - | - |
* Rain since midnight (hover to see other rain measurements)
** Current wind speed in m/s (hover to see current wind gust speed)